Weather in Grenoble

France     45°11′15″N   5°43′11″E
temp.,
°C
wind,
m/s
gust,
m/s
humid.,
%
clouds,
%
prec.,
mm/h
press.,
hPa
HPBL,
m
14 april, wed
wed1423:00−1nne118348 0.0 102711
02:00−2nne11865 0.0 102717
05:00−2nne11875 0.0 102623
08:00−1n1181100 0.0 1026139
11:00+5nnw225486 0.0 1024913
14:00+8nnw323944 0.0 10221574
17:00+8nnw33343 0.0 10211783
20:00+3nnw22605 0.0 102213
15 april, thu
thu1523:00−1nne11700 0.0 102410
02:00−2nne11740 0.0 102418
05:00−3nne11811 0.0 102433
08:00−1n23815 0.0 1024186
11:00+5nnw335211 0.0 10221119
14:00+8nnw33365 0.0 10201798
17:00+8nnw343223 0.0 10181963
20:00+3nw216226 0.0 101913
16 april, fri
fri1623:00−1ne00773 0.0 102110
02:00−2ne01804 0.0 102110
05:00−3nne118411 0.0 102010
08:00−1nnw1277100 0.0 1020152
11:00+5nw2253100 0.0 1018999
14:00+7nnw2250100 0.1 10171553
17:00+7nnw2455100 0.1 10161344
20:00+3wsw1287100 0.3 1018101
17 april, sat
sat1723:000s119895 0.0 102021
02:00−1n119735 0.0 102020
05:00−1nnw129699 0.0 1019123
08:000n2393100 0.1 1019335
11:00+1nnw2385100 0.1 1019614
14:00+3n347793 0.2 1019773
17:00+6nne265475 0.1 10161496
20:00+3nw228619 0.1 101745
18 april, sun
sun1823:000nne119521 0.0 102020
02:00−1nne129236 0.0 102089
05:00+1nne248789 0.0 1020420
08:00+1n238799 0.0 1020221
11:00+3nnw247890 0.1 1021716
14:00+7n346093 0.2 10191300
17:00+6n3461100 0.1 1019980
20:00+4n228067 0.1 102034